TimePDT,TemperatureF,Dew PointF,Humidity,Sea Level PressureIn,VisibilityMPH,Wind Direction,Wind SpeedMPH,Gust SpeedMPH,PrecipitationIn,Events,Conditions,WindDirDegrees,DateUTC
12:52 AM,39.9,37.0,89,29.92,-9999.0,NNE,3.5,-,N/A,,Unknown,30,2012-11-02 07:52:00
1:52 AM,39.9,36.0,86,29.91,-9999.0,NE,3.5,-,N/A,,Unknown,40,2012-11-02 08:52:00
2:52 AM,37.9,34.0,86,29.91,-9999.0,Calm,Calm,-,N/A,,Unknown,0,2012-11-02 09:52:00
3:52 AM,32.0,30.0,92,29.91,-9999.0,NNE,3.5,-,N/A,,Unknown,20,2012-11-02 10:52:00
4:52 AM,35.1,30.9,85,29.91,-9999.0,Calm,Calm,-,N/A,,Unknown,0,2012-11-02 11:52:00
5:52 AM,35.1,30.9,85,29.92,-9999.0,NNE,4.6,-,N/A,,Unknown,20,2012-11-02 12:52:00
6:52 AM,35.1,30.9,85,29.94,-9999.0,NE,3.5,-,N/A,,Unknown,40,2012-11-02 13:52:00
7:52 AM,37.0,32.0,82,29.94,-9999.0,NE,5.8,-,N/A,,Unknown,50,2012-11-02 14:52:00
8:52 AM,46.9,37.9,71,29.95,-9999.0,Calm,Calm,-,N/A,,Unknown,0,2012-11-02 15:52:00
9:52 AM,57.0,44.1,62,29.93,-9999.0,Calm,Calm,-,N/A,,Unknown,0,2012-11-02 16:52:00
10:52 AM,66.0,33.1,29,29.91,-9999.0,WSW,4.6,-,N/A,,Unknown,250,2012-11-02 17:52:00
11:52 AM,71.1,34.0,26,29.89,-9999.0,SW,10.4,-,N/A,,Unknown,220,2012-11-02 18:52:00
12:52 PM,71.1,41.0,34,29.86,-9999.0,SW,16.1,-,N/A,,Unknown,220,2012-11-02 19:52:00
1:52 PM,70.0,42.1,36,29.85,-9999.0,SSW,16.1,-,N/A,,Unknown,210,2012-11-02 20:52:00
2:52 PM,72.0,41.0,33,29.84,-9999.0,SW,13.8,-,N/A,,Unknown,230,2012-11-02 21:52:00
3:52 PM,68.0,44.1,42,29.86,-9999.0,SSW,16.1,-,N/A,,Unknown,200,2012-11-02 22:52:00
4:52 PM,64.0,46.9,54,29.87,-9999.0,SSW,15.0,-,N/A,,Unknown,200,2012-11-02 23:52:00
5:52 PM,57.9,46.9,67,29.91,-9999.0,SSW,5.8,-,N/A,,Unknown,200,2012-11-03 00:52:00
6:52 PM,50.0,41.0,71,29.93,-9999.0,NNE,4.6,-,N/A,,Unknown,20,2012-11-03 01:52:00
7:52 PM,46.9,39.9,77,29.95,-9999.0,NNE,3.5,-,N/A,,Unknown,30,2012-11-03 02:52:00
8:52 PM,46.0,39.9,79,29.95,-9999.0,NE,4.6,-,N/A,,Unknown,50,2012-11-03 03:52:00
9:52 PM,44.1,39.0,82,29.94,-9999.0,NNE,3.5,-,N/A,,Unknown,20,2012-11-03 04:52:00
10:52 PM,41.0,35.1,79,29.94,-9999.0,NE,5.8,-,N/A,,Unknown,50,2012-11-03 05:52:00
11:52 PM,41.0,34.0,76,29.94,-9999.0,NE,6.9,-,N/A,,Unknown,50,2012-11-03 06:52:00